Regional Weather Roundup
Issued by NWS

Home | Current Version | Previous Version | Graphics & Text | Print | Product List | Glossary Off
Versions: 1 2 3 4 5 6 7 8 9 10 11 12 13 14 15 16 17 18 19 20 21 22 23 24 25 26 27 28 29 30 31 32 33 34 35 36 37 38 39 40 41 42 43 44 45 46 47 48 49 50

000
ASUS43 KTOP 281359
RWRKS

WEATHER ROUNDUP FOR KANSAS
NATIONAL WEATHER SERVICE GOODLAND KS
900 AM CDT SUN AUG 28 2016

NOTE:  "FAIR" INDICATES FEW OR NO CLOUDS BELOW 12,000 FEET WITH NO
SIGNIFICANT WEATHER AND/OR OBSTRUCTIONS TO VISIBILITY.

KSZ001>006-013>018-027>032-041>047-281500-
NORTHWEST KANSAS

CITY           SKY/WX    TMP DP  RH WIND       PRES   REMARKS
GOODLAND       MOSUNNY   62  55  77 S5        30.12R
HAYS           MOSUNNY   70  57  64 S6        30.08F
HILL CITY      CLOUDY    69  62  78 S3        30.10R
RUSSELL        MOSUNNY   73  67  81 SE6       30.07F
$$

KSZ061>065-074>080-084>089-281500-
SOUTHWEST KANSAS

CITY           SKY/WX    TMP DP  RH WIND       PRES   REMARKS
DODGE CITY     CLOUDY    70  63  78 SE8       30.11R
ELKHART          N/A     65  58  78 S10         N/A
GARDEN CITY    PTSUNNY   67  60  78 SE3       30.12R
GREAT BEND     SUNNY     73  63  68 S6        30.08S
LIBERAL        CLOUDY    66  61  82 SW8       30.13R
$$

KSZ066>073-081>083-090>101-281500-
SOUTHEAST KANSAS

CITY           SKY/WX    TMP DP  RH WIND       PRES   REMARKS
CHANUTE        MOSUNNY   77  72  84 S7        30.13R
COFFEYVILLE    PTSUNNY   79  73  82 S6        30.12R
HUTCHINSON     SUNNY     77  70  79 S9        30.10R
MEDICINE LODGE   N/A     73  65  75 SE6       30.11R
NEWTON         CLOUDY    75  70  84 S8        30.12R
PARSONS        CLOUDY    78  72  81 S8        30.13R
WICHITA INTL   MOSUNNY   78  70  76 S8        30.10R
WICHITA JABRA  CLOUDY    76  71  85 S8        30.11R
WINFIELD       SUNNY     77  72  84 SE7       30.12R
$$

KSZ007>012-019>026-033>040-048>060-102>105-281500-
NORTHEAST KANSAS

CITY           SKY/WX    TMP DP  RH WIND       PRES   REMARKS
CONCORDIA      SUNNY     77  70  79 S7        30.09R
EMPORIA        SUNNY     75  71  87 S10       30.11S
LAWRENCE       SUNNY     76  73  91 E3        30.12R
MANHATTAN      SUNNY     77  70  79 CALM      30.09S
OLATHE IND     MOSUNNY   77  72  84 S6        30.14R
OLATHE EXE     SUNNY     76  71  85 S6        30.14R
SALINA         SUNNY     76  70  82 S9        30.09R
TOPEKA BILLARD SUNNY     77  72  84 S5        30.11R
TOPEKA FORBES  SUNNY     78  72  81 S6        30.12R
$$



USA.gov is the U.S. government's official web portal to all federal, state and local government web resources and services.